www.pogodaiklimat.ru

Погода и климат >> Архив погоды >> Вануату >> Санто-Пекоа


ПОГОДА в Санто-Пекоа

  • Прогноз погоды в Санто-Пекоа
  • Монитор погоды в Санто-Пекоа

АРХИВ ПОГОДЫ в Санто-Пекоа

Время (UTC), дата Ветер
(напр.,м/с)
 
Видим.   Явления Облачность Т
(С)
Тd
(С)
f
(%)
Тe
(С)
Тes
(С)
Комфортность P
(гПа)
Po
(гПа)
Тmin
(С)
Tmax
(С)
R
(мм)
R24
(мм)
S
(см)
21 9.06 В 2 20 км в посл. час ливневой дождь 10/3 600 м
[Cu Sc As trans]
+23.0 +20.6 86 +30 +31 очень
душно
1015.0 1009.9
00 10.06 ЮВ 3 20 км в посл. час ливневой дождь 10/10 600 м
[Cu Sc]
+25.5 +21.0 76 +32 +32 очень
душно
1014.5 1009.4 +22.4 2
03 10.06 ЮВ 3 20 км 10/10 600 м
[Cu Sc]
+25.5 +21.0 76 +32 +32 очень
душно
1012.5 1007.4
06 10.06 ЮВ 2 20 км 9/9 600 м
[Cu Sc]
+25.0 +20.9 78 +31 +31 очень
душно
1012.6 1007.5
09 10.06 ЮВ 3 20 км 4/4 600 м
[Cu hum]
+25.0 +22.5 86 +33 +33 очень
душно
1014.0 1008.9
12 10.06 ЮВ 4 20 км 5/5 600 м
[Cu hum]
+24.1 +23.7 98 +33 +33 очень
душно
1013.8 1008.7 +28.0
18 10.06 ЮВ 3 20 км 6/4 600 м
[Cu hum Ac trans]
+24.3 +21.9 86 +31 +31 очень
душно
1012.5 1007.4
21 10.06 Ю 2 20 км 4/4 600 м
[Cu med, cong As trans]
+24.2 +21.0 82 +30 +32 очень
душно
1014.7 1009.6
00 11.06 Ю 4 20 км 8/8 750 м
[Cu med, cong]
+26.4 +20.4 70 +33 +35 очень
душно
1014.1 1009.0 +23.2
03 11.06 Ю 2 20 км 9/9 840 м
[Cu Sc]
+25.4 +20.2 73 +31 +32 очень
душно
1012.2 1007.1
06 11.06 ЮВ 4 20 км 9/9 840 м
[Cu Sc]
+25.0 +19.1 70 +30 +30 душно 1012.5 1007.4
09 11.06 ЮВ 3 20 км 6/6 750 м
[Cu Sc]
+24.3 +21.3 83 +31 +31 очень
душно
1014.1 1009.0
12 11.06 ЮВ 4 20 км 5/5 750 м
[Cu med, cong]
+24.5 +19.2 72 +29 +29 душно 1014.5 1009.4 +27.2
15 11.06 Ю 3 20 км 4/4 750 м
[Cu med, cong]
+24.1 +18.1 69 +28 +28 душно 1013.0 1007.9
18 11.06 ЮВ 4 20 км 4/4 750 м
[Cu med, cong]
+24.3 +18.2 69 +29 +29 душно 1013.0 1007.9
21 11.06 Ю 4 20 км 1/1 600 м
[Cu hum Ac trans]
+25.3 +18.2 65 +30 +32 душно 1015.0 1009.9
00 12.06 ЮВ 4 20 км 3/3 750 м
[Cu hum]
+26.5 +18.1 60 +31 +38 душно 1014.2 1009.1 +20.0
03 12.06 ЮВ 3 20 км 3/3 750 м
[Cu hum]
+27.0 +18.8 61 +32 +37 очень
душно
1011.5 1006.4
06 12.06 ЮВ 4 20 км 1/1 750 м
[Cu hum]
+24.8 +19.8 74 +30 +30 душно 1011.7 1006.6
09 12.06 ЮВ 4 20 км 4/4 750 м
[Cu hum]
+24.5 +19.1 72 +29 +29 душно 1013.5 1008.4
12 12.06 ЮВ 4 20 км 4/4 750 м
[Cu hum]
+24.0 +18.2 70 +28 +28 душно 1014.0 1008.9 +27.8
15 12.06 ЮВ 4 20 км 4/4 750 м
[Cu Sc]
+24.2 +17.5 66 +28 +28 душно 1013.2 1008.1
18 12.06 ЮВ 2 20 км 1/1 750 м
[Cu hum]
+23.1 +17.3 70 +28 +28 душно 1013.0 1007.9
21 12.06 ЮВ 3 20 км 5/5 750 м
[Cu med, cong]
+25.1 +18.6 67 +30 +31 душно 1014.6 1009.5
00 13.06 ЮВ 4 20 км 4/4 750 м
[Cu med, cong]
+26.4 +19.0 64 +32 +37 очень
душно
1013.9 1008.8 +22.2
03 13.06 ЮВ 5 20 км 4/4 750 м
[Cu med, cong]
+27.0 +19.3 63 +33 +36 очень
душно
1011.6 1006.5
06 13.06 ЮВ 4 20 км 6/6 750 м
[Cu Sc]
+25.2 +18.7 67 +30 +30 душно 1011.9 1006.8
09 13.06 ЮВ 5 20 км 4/4 750 м
[Cu hum]
+24.6 +19.4 73 +30 +30 очень
душно
1013.6 1008.5
12 13.06 ЮВ 3 20 км 3/3 750 м
[Cu hum]
+23.9 +19.1 75 +29 +29 душно 1014.1 1009.0 +28.0
18 13.06 штиль 0 20 км 9/5 600 м
[Cu hum As trans]
+22.5 +20.3 87 +29 +29 очень
душно
1012.7 1007.6
21 13.06 ЮВ 1 20 км в посл. час ливневой дождь 9/3 600 м
[Cu hum As trans]
+22.1 +21.5 96 +29 +30 очень
душно
1014.6 1009.4
00 14.06 ЮВ 5 20 км {ливн. осадки} 9/5 750 м
[Cu Sc As trans]
+25.4 +20.1 72 +31 +33 очень
душно
1013.9 1008.8 +21.4 2
03 14.06 ЮВ 6 20 км {ливн. осадки} 8/8 750 м
[Cu Sc]
+26.2 +18.9 64 +31 +32 очень
душно
1011.6 1006.5
06 14.06 ЮВ 5 20 км 1/1 750 м
[Cu Sc]
+25.1 +18.5 67 +30 +30 душно 1011.4 1006.3
09 14.06 В 5 20 км 4/4 750 м
[Cu med, cong]
+24.1 +19.9 77 +29 +29 душно 1013.3 1008.2
12 14.06 ЮВ 5 20 км 5/5 750 м
[Cu Sc]
+24.7 +20.0 75 +30 +30 очень
душно
1013.8 1008.7 +27.5
15 14.06 ЮВ 3 20 км 6/6 750 м
[Cu Sc]
+21.5 +20.1 92 +27 +27 душно 1013.4 1008.2
18 14.06 В 4 20 км 6/4 750 м
[Cu med, cong Ac trans]
+23.1 +17.2 69 +28 +28 душно 1012.6 1007.5
21 14.06 ЮВ 5 20 км в посл. час ливневой дождь 9/5 600 м
[Cu hum As trans]
+24.0 +20.3 80 +30 +30 очень
душно
1014.9 1009.8
00 15.06 ЮВ 6 20 км 4/4 750 м
[Cu hum Ac trans]
+27.3 +19.8 64 +33 +36 очень
душно
1013.9 1008.8 +20.0 0.3
03 15.06 ЮВ 6 20 км 6/6 750 м
[Cu hum]
+26.7 +19.9 66 +33 +34 очень
душно
1011.6 1006.5
06 15.06 В 5 20 км 9/9 750 м
[Cu Sc]
+25.5 +19.7 70 +31 +31 очень
душно
1012.2 1007.1
09 15.06 ЮВ 6 20 км 9/1 750 м
[Cu hum Ac trans]
+25.4 +19.1 68 +30 +30 душно 1013.7 1008.6
12 15.06 ЮВ 1 20 км в посл. час ливневой дождь 10/6 600 м
[Cu Sc As trans]
+24.3 +20.0 77 +30 +30 очень
душно
1014.3 1009.2 +28.5 1
15 15.06 ЮВ 3 20 км в посл. час ливневой дождь 5/4 600 м
[Cu Sc As trans]
+24.0 +19.5 76 +29 +29 душно 1013.3 1008.2
18 15.06 ЮЗ 2 20 км осадки на расстоянии {ливн. осадки} 9/6 600 м
[Cu Sc As trans]
+23.0 +20.7 87 +30 +30 очень
душно
1013.0 1007.9 0.5
21 15.06 ЮВ 2 20 км 9/4 540 м
[Cu Sc Ac As]
+24.0 +20.2 79 +30 +30 очень
душно
1015.4 1010.3
00 16.06 ЮВ 7 20 км {ливн. осадки} 8/5 600 м
[Cu Sc As trans]
+25.5 +19.3 69 +31 +32 очень
душно
1014.7 1009.6 +22.1 2
03 16.06 ЮВ 3 20 км 8/5 600 м
[Cu Sc As trans]
+26.0 +20.7 73 +33 +35 очень
душно
1012.8 1007.7
06 16.06 ЮВ 5 20 км 9/5 540 м
[Cu Sc As trans]
+24.9 +20.5 77 +31 +31 очень
душно
1012.8 1007.7
09 16.06 ЮВ 5 20 км 8/4 750 м
[Cu hum Ac trans]
+24.8 +20.8 78 +31 +31 очень
душно
1014.3 1009.2
12 16.06 ЮВ 4 20 км 9/4 600 м
[Cu hum Ac trans]
+24.5 +21.7 84 +31 +31 очень
душно
1014.2 1009.1 +28.0

 

Местоположение метеостанции Санто-Пекоа (Вануату): широта -15.51 долгота 167.21 высота над уровнем моря 44 м.

В архиве по умолчанию представлена погода в Санто-Пекоа за последнюю неделю. Архивные данные за месяц целиком и за предыдущие месяцы, начиная с января 2011 года, Вы можете получить, выбрав интересующий диапазон дат из раскрывающегося списка и нажав кнопку "Ввод!".


*Определитесь, кто Вы:
робот инопланетянин человек

Внимание! Время в таблицах - всемирное. Для получения местного времени необходимо прибавить поправку, которая равна 11 ч.

Смотрите также архив погоды в соседних городах и на ближайших метеорологических станциях:

Погода в Саратамате (Вануату) (45 км)
Погода в Ламапе (Вануату) (118 км)
Погода в Соле (Вануату) (188 км)
Погода на Линуа (Вануату) (252 км)
Погода в Порт-Виле (Вануату) (270 км)
Погода на Эроманге (Вануату) (402 км)
Погода в Уайт Грасс (Вануату) (487 км)
Погода на Острове Сюрприз (Новая Каледония) (550 км)
Погода на Островах Санта-Круз (Соломоновы Острова) (556 км)
Погода на Острове Увеа (Новая Каледония) (576 км)

Пояснения к столбцам:

Ветер - указаны скорость ветра в м/с - средняя за 10 мин, порывы в срок и между сроками (в фигурных скобках) и направление, откуда дует ветер: С - северный, СВ - северо-восточный, В - восточный, ЮВ - юго-восточный, Ю - южный, ЮЗ - юго-западный, З - западный, СЗ - северо-западный.
Видимость - горизонтальная дальность видимости в метрах или километрах. При видимости от 1 до 10 км при отсутствии осадков обычно наблюдается дымка, при ухудшении видимости до 1 км и менее - туман. В сухую погоду видимость может ухудшаться дымом, пылью или мглою.
Явления - указаны атмосферные явления, наблюдавшиеся в срок или в последний час перед сроком; фигурными скобками обозначены явления, наблюдавшиеся между сроками (за 1-3 часа до срока); квадратными скобками обозначены град или гололедные отложения с указанием их диаметра в мм.
Облачность - указаны через наклонную черту общая и нижняя облачность в баллах и высота нижней границы облаков в метрах; квадратными скобками обозначены формы облаков: Ci - перистые, Cs - перисто-слоистые, Cc - перисто-кучевые, Ac - высококучевые, As - высокослоистые, Sc - слоисто-кучевые, Ns - слоисто-дождевые, Cu - кучевые, Cb - кучево-дождевые. Подробнее классификацию облаков см. в Атласе облаков (PDF).
T - Температура воздуха - температура, измеренная на высоте 2 м над землей.
Td - Температура точки росы - температура, при понижении до которой содержащийся в воздухе водяной пар достигнет насыщения.
f - Относительная влажность воздуха - влажноcть воздуха, измеренная на высоте 2 м над землей.
Te - Эффективная температура - температура, которую ощущает одетый по сезону человек в тени. Характеристика душности погоды. При расчете учитывается влияние влажности воздуха и скорости ветра на теплоощущения человека.
Tes - Эффективная температура на солнце - температура, которую ощущает человек, с поправкой на солнечный нагрев. Характеристика знойности погоды. Зависит от высоты солнца над горизонтом, облачности и скорости ветра. Ночью, в пасмурную погоду, а также при ветре 12 м/с и более поправка равна нулю.
P - Атмосферное давление - приведенное к уровню моря атмосферное давление.
Po - Атмосферное давление - измеренное на уровне метеостанции атмосферное давление.
Tmin - Минимальная температура - минимум температуры воздуха на высоте 2 м над землей.
Tmax - Максимальная температура - максимум температуры воздуха на высоте 2 м над землей.
R - Количество осадков - Количество выпавших осадков за период времени, мм. При наведении курсора мыши на число - период времени, за который выпало указанное количество осадков.
R24 - Количество осадков - Количество выпавших осадков за 24 часа, мм.
S - Снежный покров - Высота снежного покрова, см. При наведении курсора мыши на число - состояние снежного покрова и степень покрытия местности в баллах.